DELTA 1 DEB

Satellite information

Favourite Embed

Satellite Type and Status

DEBRISIN ORBIT

Key statistics

Satellite DELTA 1 DEB at a glance.

Uptime

19037

Days in orbit

Revolutions

≈ 12.4

Per day

Orbit

SSO

Sun Synchronous Orbit

Inclination

101.7

Latest

Satellite identification and parameters

Extended collection of information and parameters for DELTA 1 DEB.

Object identification

Identified? True

Debris? True

Object name: DELTA 1 DEB

International designator: 1973-086FX

Object number (NORAD): 9570

Object ID (CCSDS): 9570

Country: UNITED STATES OF AMERICA (US)

Current information (Y/N): Y

RCS size: SMALL

Orbital parameters

Period: 116.008 minutes

Inclination: 101.7244 deg

SMA: 7879.273 km

Apoapsis: 1554.874 km

Periapsis: 1447.401 km

RAAN: 294.8054 deg

Eccentricy: 0.00681997

Argument of periapsis: 359.315 deg

Mean anomaly: 29.1593 deg

Mean motion: 12.41290869 rev/day

Mean motion (dot): -0.00000039 rev/day2

B* drag term: 0.000033608984 1/REarth

Two-line elements (TLE)

Creation date: Dec. 19, 2025, 2:08 a.m.

Reference frame: TEME

Reference center: EARTH

Epoch: Dec. 18, 2025, 7:03 p.m. UTC

TLE line 0: 0 DELTA 1 DEB

TLE line 1: 1 09570U 73086FX 25352.79378479 -.00000039 00000-0 33609-4 0 9994

TLE line 2: 2 09570 101.7244 294.8054 0068200 359.3150 29.1593 12.41290869355493

Live tracking on map

Real-time ground track for satellite DELTA 1 DEB.

In-orbit conjunctions

A list of the most updated potential collisions computed for object DELTA 1 DEB.

Target Orbit TCA Probability of collision Miss distance Type
COSMOS 412 LEO 2025-12-13 06:02:44 0.0001106391 262.0 (m) PAYLOAD

Associated space launch

Meteorological satellite using radiometric imaging

DELTA 1 DEB was lifted into orbit during the mission ‘Delta 0300 | NOAA 3’, on board a Delta 0300 space rocket.

The launch took place on Nov. 6, 1973, 5:02 p.m. from Space Launch Complex 2W.

For more information about the launch, click the button.

Launch to space Delta 0300 | NOAA 3
Delta 0300 | NOAA 3

Agency: N/A

Status: Launch Successful

Launch date: Nov. 6, 1973, 5:02 p.m. UTC

Rocket: Delta 0300

Launch pad: Space Launch Complex 2W

Location: Vandenberg SFB, CA, USA

...

Latest news about this satellite

There are no fresh news available about this satellite. Check back as we update our databases every day.


Newsletter sign-up

Weekly statistics, charts and insights to help you stay on top of the space industry.